パンスターズ彗星

C/2020 K5 ( PanSTARRS )

English version
Home page
Updated on June 14, 2021

---------------------------------------------------------------------

・ プロフィール

発見日 2020年5月25日
発見光度 20.7等
発見者 Pan-STARRS1 1.8-m Ritchey-Chretien reflector at Haleakala

・ 写真集

・ 軌道要素

Epoch 2021 May 26.0 TT = JDT 2459360.5
T 2021 June 5.57039 TT                                  Rudenko
q   1.5356376            (2000.0)            P               Q
z  -0.0009918      Peri.  249.58841     +0.33976534     +0.19780759
 +/-0.0000028      Node    86.16460     +0.00195118     +0.97748237
e   1.0015230      Incl.   67.15190     -0.94050822     +0.07348730
From 75 observations 2020 Apr. 3-2021 May 4, mean residual 0".5.

・ 星図

・ 光度変化

        m1 = 14.0 + 5 logΔ + 8.0 log r(t + 200)

        ※ 灰色の曲線は、m1 = 10.5 + 5 logΔ + 10.0 log r の光度曲線です。

---------------------------------------------------------------------

軌道要素はM.P.E.C. 2021-L04に掲載されたものです。
星図はステラナビゲータ Ver.10 (アストロアーツ) で作成したものです。
光度グラフはComet for Windowsで作成したものです。

---------------------------------------------------------------------

Copyright(C) Seiichi Yoshida (comet@aerith.net). All rights reserved.